TimeCDT,TemperatureF,Dew PointF,Humidity,Sea Level PressureIn,VisibilityMPH,Wind Direction,Wind SpeedMPH,Gust SpeedMPH,PrecipitationIn,Events,Conditions,WindDirDegrees,DateUTC
12:53 AM,60.1,52.0,75,29.95,10.0,South,3.5,-,N/A,,Clear,170,2012-08-22 05:53:00
1:53 AM,59.0,53.1,81,29.94,10.0,Calm,Calm,-,N/A,,Clear,0,2012-08-22 06:53:00
2:53 AM,57.9,52.0,81,29.94,10.0,SSE,3.5,-,N/A,,Clear,160,2012-08-22 07:53:00
3:53 AM,57.0,51.1,81,29.94,10.0,Calm,Calm,-,N/A,,Clear,0,2012-08-22 08:53:00
4:53 AM,57.0,51.1,81,29.94,10.0,Calm,Calm,-,N/A,,Clear,0,2012-08-22 09:53:00
5:53 AM,55.9,51.1,84,29.93,10.0,Calm,Calm,-,N/A,,Clear,0,2012-08-22 10:53:00
6:53 AM,54.0,50.0,86,29.94,10.0,SSE,5.8,-,N/A,,Clear,150,2012-08-22 11:53:00
7:53 AM,57.0,52.0,83,29.95,10.0,SE,4.6,-,N/A,,Clear,130,2012-08-22 12:53:00
8:53 AM,63.0,54.0,72,29.94,10.0,South,3.5,-,N/A,,Clear,170,2012-08-22 13:53:00
9:53 AM,69.1,54.0,58,29.93,10.0,ESE,5.8,-,N/A,,Clear,120,2012-08-22 14:53:00
10:53 AM,75.0,55.0,50,29.93,10.0,SSE,5.8,-,N/A,,Clear,150,2012-08-22 15:53:00
11:53 AM,81.0,54.0,39,29.90,10.0,SSE,11.5,-,N/A,,Clear,160,2012-08-22 16:53:00
12:53 PM,82.4,53.6,37,29.91,10.0,SSE,12.7,-,N/A,,Clear,150,2012-08-22 17:53:00
1:53 PM,84.0,55.0,37,29.88,10.0,ESE,11.5,-,N/A,,Clear,120,2012-08-22 18:53:00
2:53 PM,84.9,54.0,34,29.87,10.0,SSE,13.8,-,N/A,,Clear,160,2012-08-22 19:53:00
3:53 PM,84.9,54.0,34,29.86,10.0,SE,11.5,-,N/A,,Clear,130,2012-08-22 20:53:00
4:53 PM,86.0,55.9,36,29.86,10.0,SSE,18.4,-,N/A,,Clear,150,2012-08-22 21:53:00
5:53 PM,82.9,59.0,44,29.87,10.0,SE,16.1,-,N/A,,Clear,140,2012-08-22 22:53:00
6:53 PM,79.0,59.0,50,29.87,10.0,SE,9.2,-,N/A,,Clear,130,2012-08-22 23:53:00
7:53 PM,75.0,59.0,57,29.87,10.0,ESE,5.8,-,N/A,,Clear,120,2012-08-23 00:53:00
8:53 PM,73.0,59.0,61,29.87,10.0,ESE,4.6,-,N/A,,Partly Cloudy,110,2012-08-23 01:53:00
9:53 PM,72.0,57.9,61,29.85,10.0,ESE,4.6,-,N/A,,Mostly Cloudy,110,2012-08-23 02:53:00
11:53 PM,69.1,55.9,63,29.83,10.0,ESE,8.1,-,N/A,,Clear,120,2012-08-23 04:53:00